Wind_Speed
5 3 7 11 9 7 9 8 4 4 7 6 7 3 6 10 9 9 6 4 4 9 10 24 27 28 33 31 29 26 24 24 23 17 14 10 11 8 14 14 10 9 5 3
4 6 15 7 11 7 6 9 6 13 7 4 6 5 3 11 15 13 12 8 9 9 7 16 20 26 30 28 31 29 28 25 25 19 15 10 10 6 10 16 15 10 8 5
8 13 2 8 6 9 5 9 10 4 10 2 4 5 5 6 7 8 7 8 8 16 12 10 15 15 16 23 26 24 31 26 22 18 15 10 9 7 14 20 17 11 10 8
7 15 12 9 11 11 6 18 15 14 12 5 9 4 6 6 6 11 12 7 11 13 8 13 18 15 13 13 19 29 31 28 21 19 16 16 11 8 13 19 15 12 14 11
10 6 5 8 7 13 11 12 18 20 13 4 5 1 7 4 6 8 13 12 13 14 12 13 19 21 18 15 20 27 31 28 24 22 17 15 16 12 12 17 15 13 14 13
10 5 6 9 6 4 4 5 8 5 3 2 6 6 5 5 14 9 12 13 16 15 13 13 16 17 19 9 20 25 31 30 25 24 19 16 20 16 16 15 13 16 16 15
7 8 7 4 4 6 5 6 3 3 4 5 3 4 8 7 6 15 19 16 17 16 16 13 12 14 20 13 17 23 32 32 28 24 23 18 19 19 18 16 14 23 19 19
2 9 3 4 7 7 5 9 6 6 4 4 4 1 5 7 11 7 7 14 18 16 14 12 14 20 22 21 18 21 26 33 32 28 27 22 21 22 19 21 17 22 24 22
4 7 6 7 8 9 3 3 6 7 1 3 5 6 5 5 4 5 6 13 14 17 17 17 20 24 27 29 25 26 25 32 33 31 29 27 25 22 18 16 14 18 21 22
8 4 6 5 4 3 8 6 3 3 4 3 4 3 5 6 8 7 7 9 8 13 15 14 18 21 18 29 32 27 31 29 35 33 31 30 28 25 22 18 17 18 17 13
6 6 13 4 4 8 2 2 3 5 6 5 3 6 7 9 12 7 8 11 11 12 15 15 16 19 31 25 17 26 29 26 30 33 33 29 30 29 27 23 22 19 18 20
11 6 6 12 5 9 8 8 6 4 3 2 4 4 7 8 9 11 9 7 7 12 11 11 18 19 21 23 27 26 24 18 26 30 32 32 28 27 28 30 26 21 19 18
7 4 2 8 7 5 3 4 3 4 4 5 4 4 2 7 7 8 9 7 7 6 8 8 17 21 25 25 25 23 24 22 34 24 25 26 30 30 30 30 30 27 23 21
8 4 8 8 7 4 3 1 5 5 3 4 5 7 7 7 12 7 7 7 6 6 9 6 12 17 25 26 29 27 27 33 38 26 22 20 18 22 32 30 30 27 26 24
4 5 5 5 7 5 3 1 3 1 6 6 7 9 15 15 11 14 12 7 8 8 9 7 8 6 15 20 18 22 27 27 31 28 24 19 16 19 20 23 26 25 26 27
6 3 1 2 8 8 2 5 5 2 7 3 12 5 5 13 14 9 12 10 9 10 9 10 11 12 13 16 20 25 27 32 29 26 26 25 24 10 11 10 16 22 23 25
3 1 3 3 6 6 3 6 6 3 5 7 8 10 7 5 12 13 9 11 11 10 9 10 9 11 20 21 20 21 27 24 25 30 33 28 23 25 16 19 20 23 22 23
5 3 2 3 3 4 7 6 8 10 3 4 3 8 17 14 5 5 6 11 9 9 11 9 10 14 13 16 17 17 17 18 17 19 19 23 26 25 18 27 32 29 24 33
5 2 3 4 4 4 3 4 6 5 3 3 7 9 10 8 6 2 7 5 8 9 7 14 22 17 16 15 18 18 16 16 17 17 19 20 20 23 20 23 26 28 24 28
7 3 5 2 6 3 5 5 6 4 3 5 10 13 11 7 4 4 6 12 11 17 22 23 22 22 22 16 15 14 14 14 12 12 12 11 14 19 24 25 24 24 26 26
2 2 7 4 2 4 5 8 4 6 8 5 13 14 10 7 6 7 7 6 16 19 22 21 19 17 16 21 22 20 16 13 10 9 6 6 8 11 16 17 17 19 18 19
2 4 4 3 4 4 6 6 1 4 4 6 7 11 7 9 11 12 11 9 10 11 17 17 14 7 6 13 19 18 18 13 10 8 6 7 6 8 10 12 13 12 13 15
2 2 3 6 6 6 5 8 5 3 6 4 8 10 16 17 14 13 9 10 8 17 18 15 14 9 6 7 16 19 17 15 11 7 6 6 7 6 8 9 9 7 6 8
5 6 4 5 5 6 6 5 6 2 2 5 9 14 17 13 11 10 8 8 7 14 15 13 9 6 4 5 7 14 14 9 7 5 5 6 6 7 7 7 5 6 6 8
3 5 5 5 8 13 6 3 4 7 2 7 12 15 12 15 10 11 9 8 10 16 14 11 8 5 3 9 15 15 12 8 7 7 6 7 7 12 8 6 4 5 8 9
3 3 2 3 1 4 8 7 12 4 3 13 14 7 5 12 13 11 9 13 16 15 12 10 9 8 5 8 10 9 8 7 7 7 7 6 10 10 8 9 8 6 7 8
Wind_Direction
275 93 230 225 203 193 143 134 169 338 210 159 200 188 201 203 223 217 183 208 186 188 159 178 172 180 175 181 184 184 180 185 183 187 210 204 199 214 210 199 184 182 188 210
3 240 239 230 205 207 123 140 184 181 196 114 213 215 238 210 210 213 194 199 146 136 141 163 178 172 182 181 189 194 192 187 189 189 200 214 213 210 194 196 200 191 205 212
191 241 207 187 219 232 136 181 191 172 161 73 125 295 239 208 247 211 203 185 156 159 147 151 149 169 186 187 187 197 190 189 188 202 200 199 207 212 185 186 197 207 225 210
220 257 247 251 223 194 169 207 190 164 145 212 189 246 258 213 215 227 227 182 167 177 156 159 155 152 177 211 199 190 192 192 192 197 211 224 226 207 196 194 206 224 218 215
240 259 242 243 211 173 224 153 205 171 175 124 210 59 269 124 235 230 227 183 178 184 170 176 177 176 179 195 197 199 197 195 196 202 215 222 224 221 204 207 216 226 216 210
251 246 191 221 262 193 241 120 54 119 140 9 229 164 275 206 225 205 222 196 178 179 187 188 185 193 185 173 198 207 206 204 205 208 216 228 219 229 218 207 222 216 218 210
312 291 282 202 205 350 107 65 12 8 7 221 172 173 232 221 188 204 206 194 183 180 186 182 180 183 193 188 192 203 216 213 212 212 216 222 225 233 222 222 242 224 219 215
240 315 259 247 174 181 189 148 156 196 195 268 50 280 260 239 182 195 154 173 175 186 192 183 184 190 198 193 206 212 213 212 212 214 210 219 224 223 231 235 242 229 219 222
188 262 272 222 192 132 219 143 193 103 318 77 318 309 298 15 293 114 126 165 176 185 192 190 195 194 200 200 210 209 210 215 216 217 213 214 220 219 221 224 229 224 237 235
218 287 262 270 99 187 153 169 69 27 140 147 299 268 239 284 254 247 168 170 164 182 183 190 200 197 193 211 223 221 209 218 220 220 215 219 221 225 223 222 231 232 231 216
164 153 270 106 173 194 303 225 79 122 126 146 187 262 216 218 206 179 168 172 171 175 186 185 199 198 201 214 214 216 217 224 223 222 220 224 226 225 229 224 225 236 243 239
193 165 210 228 224 201 180 198 136 127 220 103 157 263 292 158 144 152 184 191 171 174 173 181 192 193 209 224 234 236 230 234 234 225 223 221 228 228 229 228 227 227 236 240
186 213 243 334 351 26 65 50 62 102 86 185 142 242 129 132 162 190 172 182 167 161 194 193 184 191 203 213 220 210 204 201 236 221 225 228 230 231 232 233 231 228 232 240
110 143 162 193 204 162 147 320 120 104 107 179 205 165 153 193 167 182 209 183 162 154 145 147 162 188 203 206 206 202 204 203 208 223 240 254 257 247 238 239 239 236 230 233
85 189 146 177 169 169 158 15 14 2 152 183 207 178 178 184 192 185 193 168 142 130 127 135 144 158 197 200 198 200 203 203 203 207 225 233 251 266 250 243 245 245 237 237
9 309 89 147 153 140 97 316 284 337 14 19 163 223 243 169 175 181 177 159 152 142 130 135 142 141 141 178 193 208 213 209 204 211 222 234 234 236 225 233 253 244 246 253
66 39 52 189 138 103 40 179 258 83 235 161 160 214 157 189 191 187 166 163 162 155 139 148 146 142 147 146 157 187 209 213 219 224 223 234 242 230 239 241 272 262 243 265
129 146 95 120 70 130 240 179 197 197 278 277 147 146 175 190 185 148 176 159 169 150 146 149 149 149 147 139 144 152 167 186 202 215 230 237 244 237 226 249 261 262 281 273
130 120 83 132 148 273 33 249 184 183 250 211 117 126 155 132 96 72 147 139 152 141 144 143 132 137 162 152 144 152 165 179 192 207 221 228 235 236 232 240 236 250 270 264
113 121 128 279 123 169 253 285 237 116 287 217 143 145 143 127 115 222 152 130 127 130 137 143 143 138 144 163 171 166 162 167 174 178 203 230 242 241 239 250 260 260 247 267
89 89 167 171 186 232 218 317 11 127 228 196 152 158 155 155 173 153 151 108 131 139 147 151 153 156 165 171 176 182 184 189 211 209 213 229 239 259 264 263 263 262 258 253
161 148 199 106 114 270 178 56 208 233 279 161 164 156 136 123 128 135 135 133 125 120 121 116 103 120 156 184 184 185 195 201 201 224 257 282 261 260 252 252 259 257 259 262
35 283 254 162 203 235 228 144 171 93 279 142 129 138 135 136 145 143 135 131 134 128 122 117 115 107 94 174 195 185 191 185 191 220 265 285 278 268 232 216 216 226 239 253
329 359 37 24 340 281 229 131 142 119 315 163 143 147 148 148 146 141 138 137 130 131 126 120 108 101 115 136 171 193 177 187 207 227 258 279 257 220 223 234 235 236 239 244
228 349 322 288 359 340 10 87 247 162 91 274 155 155 154 145 151 147 141 139 136 130 123 118 112 109 126 174 157 166 179 194 229 257 260 263 247 207 215 222 241 278 267 259
211 176 129 230 340 248 262 306 310 16 165 189 160 146 158 151 153 142 141 146 143 140 137 129 126 140 133 161 180 186 201 213 215 243 268 265 208 205 218 239 250 275 296 288
Height
767 788 801 788 786 778 789 800 810 804 788 800 806 806 801 794 795 790 791 793 793 794 797 799 800 803 806 810 814 815 818 822 823 825 825 827 830 833 832 835 836 838 839 840
782 796 767 767 769 775 784 796 802 796 784 797 805 805 801 794 789 785 786 790 788 794 796 798 801 801 805 807 812 815 817 819 822 823 825 826 829 831 831 834 836 838 840 841
790 769 754 764 772 782 790 796 795 795 786 796 806 812 807 791 786 783 785 782 784 788 792 795 798 802 806 807 810 812 815 817 820 823 824 826 828 830 831 832 834 837 838 842
776 751 759 765 770 769 798 768 770 782 800 824 798 832 807 794 791 784 781 786 786 788 789 790 792 796 803 807 811 812 814 816 819 822 825 826 829 830 832 833 834 834 837 840
769 756 759 765 754 754 768 751 763 775 793 797 810 827 798 791 793 789 779 783 783 784 785 787 787 790 797 802 807 812 814 816 818 821 824 827 830 831 832 833 833 834 835 839
758 737 742 745 734 735 733 751 773 785 797 825 797 810 806 801 777 777 774 773 778 782 783 785 787 792 795 799 804 809 813 815 818 820 822 824 828 830 831 832 833 833 834 835
761 752 736 729 746 741 744 786 825 817 825 827 794 801 789 764 761 758 761 765 772 776 780 783 787 790 794 796 800 805 809 812 815 817 819 822 824 828 830 832 832 831 832 834
790 792 743 726 741 756 760 778 815 830 838 814 785 801 782 748 745 747 754 757 765 772 773 779 782 785 789 791 797 802 805 809 811 812 814 818 820 823 827 829 830 829 830 832
787 780 732 726 724 736 754 776 761 804 802 814 816 788 755 752 750 756 761 761 762 766 770 775 778 778 781 786 791 795 801 805 808 808 812 814 817 819 822 826 829 830 830 831
755 779 735 721 717 726 743 743 783 801 824 825 823 801 799 772 765 757 763 765 764 763 768 773 776 778 783 783 786 792 796 799 803 806 808 812 814 816 818 822 826 829 830 828
742 758 748 729 742 750 749 759 765 778 800 830 836 809 763 761 755 757 760 760 761 759 760 766 772 776 777 778 782 787 792 797 800 802 806 809 811 813 817 819 821 825 827 828
727 757 773 751 723 719 732 747 765 787 789 807 807 796 749 747 751 755 756 755 757 757 761 765 770 775 780 782 781 786 793 797 799 800 802 805 809 810 812 815 817 820 822 824
720 753 779 765 747 730 742 743 749 763 776 798 808 798 751 749 755 751 752 754 753 754 759 760 764 770 772 779 779 786 790 795 794 797 801 802 803 804 807 810 812 814 817 819
707 745 752 776 760 745 747 740 749 764 787 791 789 777 769 758 754 754 753 750 750 751 755 759 762 766 769 774 777 779 784 788 792 794 798 800 801 802 803 806 809 811 812 814
717 741 730 735 732 732 734 735 734 753 762 774 766 765 760 750 752 746 746 749 751 755 759 761 764 767 768 772 776 776 781 784 785 789 793 797 798 801 799 801 804 806 808 809
722 735 727 734 732 730 739 733 731 738 739 749 757 759 740 733 736 745 742 746 751 752 755 762 766 767 768 768 772 775 776 780 784 788 790 792 793 797 796 797 800 800 802 806
730 741 750 755 737 743 759 740 731 734 740 747 763 745 737 742 741 742 744 743 747 749 754 759 761 763 767 768 769 772 775 780 783 785 786 788 787 789 789 789 794 795 796 799
729 739 749 759 751 779 740 718 717 731 725 723 725 726 729 731 735 735 735 740 745 747 751 756 758 761 764 767 770 772 775 778 780 781 781 781 782 782 782 784 786 788 790 791
714 733 751 762 774 751 735 723 724 728 732 714 724 724 727 730 732 737 733 736 741 745 750 755 757 759 763 766 769 772 774 776 778 778 779 779 780 781 783 783 782 787 790 788
719 725 741 764 766 773 740 712 701 708 746 712 714 723 727 729 759 754 737 735 740 743 748 753 757 760 763 766 768 770 773 775 776 777 778 777 778 779 781 780 779 781 777 784
738 744 748 760 760 745 719 707 702 752 750 710 707 714 725 734 732 733 736 739 740 745 750 753 756 758 761 763 766 768 770 771 773 774 775 776 776 775 774 775 775 774 775 777
737 750 750 754 758 758 702 708 725 722 705 700 705 709 718 722 728 732 735 740 742 746 750 753 755 758 761 762 763 765 767 768 770 771 772 772 772 772 772 772 772 771 771 772
741 741 734 734 742 710 696 702 702 705 708 703 705 708 712 722 727 731 738 740 742 745 749 752 755 758 760 761 762 762 763 766 767 768 768 769 768 768 769 769 769 770 770 771
737 733 739 730 715 707 696 688 690 697 703 702 703 708 711 720 725 731 736 740 743 745 748 751 754 757 758 759 760 761 763 765 766 765 765 765 765 765 766 766 767 769 770 769
743 738 743 737 727 714 699 694 693 689 699 707 703 705 711 716 724 727 734 739 742 745 748 751 753 755 756 758 758 760 762 763 763 763 762 762 761 762 763 764 765 765 765 764
736 739 746 749 741 740 727 710 701 694 696 704 702 710 712 713 721 725 733 737 740 744 747 750 752 755 756 757 758 759 760 760 759 759 759 758 758 758 759 760 760 760 760 759